K9BM Weather Reports


time (UTC)temp
C
wind
direction
speed
KPH
gust
KPH
rain 1hr
cm
rain 24hr
cm
rain mn
cm
humidity
%
barometer
mb
20260906034005 18 66 6.4 12.9 0.00 0.00 0.00 40 1010.3
20260906033505 18 59 8.0 9.7 0.00 0.00 0.00 40 1010.3
20260906033006 18 56 4.8 9.7 0.00 0.00 0.00 40 1010.3
20260906032505 18 56 6.4 8.0 0.00 0.00 0.00 40 1010.3
20260906031505 19 58 4.8 11.3 0.00 0.00 0.00 39 1010.2
20260906030005 19 59 4.8 8.0 0.00 0.00 0.00 40 1010.0
20260906025505 20 61 3.2 11.3 0.00 0.00 0.00 39 1010.0
20260906025007 20 58 6.4 11.3 0.00 0.00 0.00 39 1009.9
20260906024505 20 55 3.2 11.3 0.00 0.00 0.00 38 1009.9
20260906024005 20 53 4.8 11.3 0.00 0.00 0.00 38 1009.7
20260906023505 20 90 8.0 16.1 0.00 0.00 0.00 38 1009.5
20260906023005 20 100 8.0 16.1 0.00 0.00 0.00 38 1009.5
20260906022505 20 96 11.3 16.1 0.00 0.00 0.00 37 1009.4
20260906022005 20 100 11.3 16.1 0.00 0.00 0.00 37 1009.5
20260906020004 21 106 12.9 19.3 0.00 0.00 0.00 35 1009.3
20260906015505 21 101 11.3 20.9 0.00 0.00 0.00 34 1009.2
20260906015005 22 103 16.1 20.9 0.00 0.00 0.00 34 1009.1
20260906014505 22 98 16.1 20.9 0.00 0.00 0.00 33 1009.0
20260906014005 22 107 16.1 25.7 0.00 0.00 0.00 33 1009.0
20260906013505 22 103 17.7 25.7 0.00 0.00 0.00 32 1009.0
20260906013005 23 107 16.1 24.1 0.00 0.00 0.00 31 1008.9
20260906012005 23 95 16.1 24.1 0.00 0.00 0.00 30 1008.8
20260906011505 23 98 14.5 24.1 0.00 0.00 0.00 29 1008.8
20260906011005 24 85 16.1 25.7 0.00 0.00 0.00 28 1008.8
20260906010004 24 87 14.5 25.7 0.00 0.00 0.00 27 1008.8
20260906005505 24 84 19.3 25.7 0.00 0.00 0.00 27 1008.7
20260906005005 24 87 16.1 25.7 0.00 0.00 0.00 27 1008.7
20260906004505 25 63 14.5 24.1 0.00 0.00 0.00 27 1008.7
20260906004005 25 77 17.7 24.1 0.00 0.00 0.00 27 1008.6
20260906003005 25 71 17.7 27.4 0.00 0.00 0.00 26 1008.6
20260906002505 25 49 16.1 22.5 0.00 0.00 0.00 26 1008.6
20260906002006 25 57 14.5 22.5 0.00 0.00 0.00 26 1008.6
20260906001505 25 84 14.5 19.3 0.00 0.00 0.00 26 1008.6
20260906001005 25 88 14.5 25.7 0.00 0.00 0.00 26 1008.7
20260906000005 25 85 14.5 25.7 0.00 0.00 0.00 26 1008.7
20260905235505 25 89 17.7 24.1 0.00 0.00 0.00 26 1008.7
20260905235005 25 70 14.5 25.7 0.00 0.00 0.00 26 1008.7
20260905234505 25 108 19.3 29.0 0.00 0.00 0.00 26 1008.6
20260905234005 25 85 14.5 29.0 0.00 0.00 0.00 26 1008.7
20260905233505 25 59 11.3 22.5 0.00 0.00 0.00 25 1008.6
20260905233005 25 100 14.5 25.7 0.00 0.00 0.00 25 1008.6
20260905232005 26 106 20.9 25.7 0.00 0.00 0.00 25 1008.6
20260905231505 25 85 12.9 25.7 0.00 0.00 0.00 25 1008.6
20260905231005 25 105 20.9 25.7 0.00 0.00 0.00 25 1008.5
20260905230005 25 93 16.1 25.7 0.00 0.00 0.00 26 1008.6
20260905225505 26 72 8.0 22.5 0.00 0.00 0.00 25 1008.6
20260905225005 26 81 12.9 27.4 0.00 0.00 0.00 25 1008.6
20260905224004 25 94 19.3 27.4 0.00 0.00 0.00 26 1008.6
20260905223505 25 84 14.5 29.0 0.00 0.00 0.00 26 1008.6
20260905223005 25 79 8.0 29.0 0.00 0.00 0.00 26 1008.6
20260905222505 25 81 14.5 29.0 0.00 0.00 0.00 27 1008.6
20260905222005 24 80 12.9 22.5 0.00 0.00 0.00 27 1008.7
20260905221505 24 57 11.3 25.7 0.00 0.00 0.00 28 1008.8
20260905221005 23 69 16.1 25.7 0.00 0.00 0.00 28 1008.8
20260905220005 24 59 14.5 22.5 0.00 0.00 0.00 28 1008.8
20260905215505 23 75 16.1 22.5 0.00 0.00 0.00 29 1008.9
20260905215004 23 50 16.1 24.1 0.00 0.00 0.00 29 1009.0
20260905214505 23 79 14.5 24.1 0.00 0.00 0.00 29 1009.0
20260905214005 23 89 12.9 20.9 0.00 0.00 0.00 29 1008.9
20260905213505 23 80 17.7 24.1 0.00 0.00 0.00 29 1009.0
20260905213005 23 95 14.5 32.2 0.00 0.00 0.00 29 1008.9
20260905212505 23 97 22.5 32.2 0.00 0.00 0.00 29 1008.9
20260905212005 23 68 12.9 22.5 0.00 0.00 0.00 29 1009.0
20260905211505 23 35 9.7 27.4 0.00 0.00 0.00 29 1009.0
20260905211005 24 60 16.1 27.4 0.00 0.00 0.00 28 1008.9
20260905210004 24 85 19.3 27.4 0.00 0.00 0.00 28 1009.1
20260905205505 25 96 16.1 29.0 0.00 0.00 0.00 27 1009.1
20260905205005 25 103 16.1 29.0 0.00 0.00 0.00 27 1009.0
20260905204504 25 94 9.7 29.0 0.00 0.00 0.00 27 1008.9
20260905203505 24 86 19.3 29.0 0.00 0.00 0.00 29 1009.1
20260905202505 23 57 19.3 27.4 0.00 0.00 0.00 30 1009.2
20260905202005 24 55 19.3 27.4 0.00 0.00 0.00 29 1009.3
20260905201504 23 105 14.5 22.5 0.00 0.00 0.00 30 1009.4
20260905201005 23 53 12.9 25.7 0.00 0.00 0.00 30 1009.4
20260905200004 23 101 16.1 27.4 0.00 0.00 0.00 31 1009.4
20260905195505 22 57 16.1 32.2 0.00 0.00 0.00 31 1009.3
20260905195005 22 69 20.9 32.2 0.00 0.00 0.00 31 1009.4
20260905194505 22 78 19.3 32.2 0.00 0.00 0.00 31 1009.5
20260905194005 23 53 14.5 25.7 0.00 0.00 0.00 31 1009.5
20260905193505 23 53 14.5 27.4 0.00 0.00 0.00 30 1009.5
20260905192504 23 70 19.3 27.4 0.00 0.00 0.00 32 1009.6
20260905191504 22 76 14.5 32.2 0.00 0.00 0.00 32 1009.6
20260905191005 22 48 16.1 32.2 0.00 0.00 0.00 31 1009.5
20260905190005 22 55 9.7 25.7 0.00 0.00 0.00 32 1009.7
20260905185505 22 78 19.3 32.2 0.00 0.00 0.00 32 1009.8
20260905184505 22 63 14.5 27.4 0.00 0.00 0.00 32 1009.8
20260905184005 22 62 14.5 29.0 0.00 0.00 0.00 31 1009.9
20260905183505 22 95 20.9 29.0 0.00 0.00 0.00 32 1010.0
20260905183005 22 75 16.1 32.2 0.00 0.00 0.00 32 1010.0
20260905182504 22 86 16.1 32.2 0.00 0.00 0.00 32 1010.1
20260905182005 22 86 20.9 29.0 0.00 0.00 0.00 32 1010.1
20260905181505 22 98 11.3 32.2 0.00 0.00 0.00 33 1010.2
20260905181005 21 105 20.9 32.2 0.00 0.00 0.00 34 1010.1
20260905180004 21 74 19.3 27.4 0.00 0.00 0.00 33 1010.4
20260905175505 21 93 16.1 27.4 0.00 0.00 0.00 34 1010.4
20260905175004 21 77 17.7 27.4 0.00 0.00 0.00 34 1010.4
20260905174004 21 85 16.1 25.7 0.00 0.00 0.00 35 1010.4
20260905173505 20 85 16.1 25.7 0.00 0.00 0.00 36 1010.4
20260905173005 20 89 14.5 27.4 0.00 0.00 0.00 38 1010.4
20260905172004 19 52 12.9 27.4 0.00 0.00 0.00 38 1010.5
20260905171004 18 58 14.5 24.1 0.00 0.00 0.00 40 1010.6
20260905170005 18 53 16.1 24.1 0.00 0.00 0.00 39 1010.7
20260905165504 18 76 11.3 25.7 0.00 0.00 0.00 39 1010.7
20260905165004 18 77 14.5 25.7 0.00 0.00 0.00 40 1010.7
20260905164505 18 58 14.5 25.7 0.00 0.00 0.00 40 1010.5
20260905164004 18 55 11.3 24.1 0.00 0.00 0.00 42 1010.6
20260905163505 18 56 12.9 24.1 0.00 0.00 0.00 41 1010.6
20260905163005 18 52 9.7 24.1 0.00 0.00 0.00 42 1010.5
20260905162504 18 73 9.7 20.9 0.00 0.00 0.00 42 1010.5
20260905162004 17 36 4.8 20.9 0.00 0.00 0.00 43 1010.6
20260905160004 17 62 8.0 19.3 0.00 0.00 0.00 44 1010.5
20260905155505 17 43 8.0 19.3 0.00 0.00 0.00 46 1010.5
20260905154504 16 25 4.8 16.1 0.00 0.00 0.00 48 1010.5
20260905154005 16 42 8.0 16.1 0.00 0.00 0.00 47 1010.5
20260905153005 16 48 8.0 19.3 0.00 0.00 0.00 48 1010.6
20260905152504 16 32 11.3 19.3 0.00 0.00 0.00 49 1010.7
20260905152005 16 36 9.7 19.3 0.00 0.00 0.00 49 1010.6
20260905151005 16 37 9.7 19.3 0.00 0.00 0.00 49 1010.7
20260905145504 15 18 11.3 20.9 0.00 0.00 0.00 50 1010.6
20260905145004 15 29 11.3 19.3 0.00 0.00 0.00 50 1010.7
20260905144005 15 27 9.7 20.9 0.00 0.00 0.00 52 1010.6
20260905143504 14 36 9.7 16.1 0.00 0.00 0.00 52 1010.6
20260905143005 14 30 11.3 20.9 0.00 0.00 0.00 52 1010.5
20260905142504 14 24 11.3 20.9 0.00 0.00 0.00 52 1010.5
20260905142005 14 49 8.0 19.3 0.00 0.00 0.00 52 1010.5
20260905141504 13 36 9.7 16.1 0.00 0.00 0.00 53 1010.5
20260905140005 13 23 8.0 19.3 0.00 0.00 0.00 55 1010.3
20260905135508 13 17 8.0 14.5 0.00 0.00 0.00 56 1010.3
20260905135004 13 15 6.4 14.5 0.00 0.00 0.00 56 1010.3
20260905134004 12 23 8.0 16.1 0.00 0.00 0.00 56 1010.0
20260905133005 12 15 9.7 16.1 0.00 0.00 0.00 56 1010.0
20260905132504 12 29 8.0 14.5 0.00 0.00 0.00 57 1009.9
20260905131005 11 45 8.0 12.9 0.00 0.00 0.00 59 1009.6
20260905130004 11 25 8.0 14.5 0.00 0.00 0.00 58 1009.3
20260905125005 11 33 8.0 14.5 0.00 0.00 0.00 58 1009.2
20260905124505 12 37 8.0 16.1 0.00 0.00 0.00 58 1009.1
20260905124005 11 46 8.0 16.1 0.00 0.00 0.00 58 1009.1
20260905123504 11 57 6.4 12.9 0.00 0.00 0.00 58 1009.0
20260905123004 11 34 8.0 12.9 0.00 0.00 0.00 58 1008.8
20260905122504 12 31 6.4 14.5 0.00 0.00 0.00 57 1008.8
20260905121504 12 36 8.0 16.1 0.00 0.00 0.00 56 1008.6
20260905121005 12 33 8.0 16.1 0.00 0.00 0.00 55 1008.5
20260905120005 12 31 9.7 19.3 0.00 0.00 0.00 55 1008.3
20260905115004 12 29 8.0 19.3 0.00 0.00 0.00 54 1008.0
20260905114504 12 29 9.7 19.3 0.00 0.00 0.00 54 1007.9
20260905114005 12 29 11.3 19.3 0.00 0.00 0.00 54 1008.0
20260905113505 12 48 8.0 16.1 0.00 0.00 0.00 54 1008.0
20260905113004 12 31 8.0 16.1 0.00 0.00 0.00 54 1007.9
20260905112504 12 42 4.8 14.5 0.00 0.00 0.00 54 1007.9
20260905112005 12 44 6.4 9.7 0.00 0.00 0.00 54 1007.8
20260905111004 12 41 4.8 9.7 0.00 0.00 0.00 56 1007.4
20260905105505 12 29 3.2 9.7 0.00 0.00 0.00 55 1007.2
20260905104505 12 48 8.0 14.5 0.00 0.00 0.00 55 1007.0
20260905104005 12 27 8.0 14.5 0.00 0.00 0.00 54 1007.1
20260905103505 12 53 8.0 14.5 0.00 0.00 0.00 54 1007.0
20260905102505 13 43 9.7 16.1 0.00 0.00 0.00 53 1007.0
20260905102005 13 59 8.0 19.3 0.00 0.00 0.00 53 1007.1
20260905101504 13 66 8.0 19.3 0.00 0.00 0.00 53 1007.0
20260905101004 13 53 9.7 16.1 0.00 0.00 0.00 52 1006.8
20260905095505 13 78 8.0 19.3 0.00 0.00 0.00 51 1007.1
20260905094504 13 64 9.7 16.1 0.00 0.00 0.00 52 1007.1
20260905093505 13 98 9.7 12.9 0.00 0.00 0.00 52 1007.3
20260905093004 13 86 6.4 14.5 0.00 0.00 0.00 52 1007.3
20260905092504 13 78 9.7 14.5 0.00 0.00 0.00 53 1007.1
20260905092004 13 84 9.7 14.5 0.00 0.00 0.00 52 1007.1
20260905091504 13 76 9.7 12.9 0.00 0.00 0.00 52 1007.0
20260905091004 13 66 8.0 9.7 0.00 0.00 0.00 53 1006.9
20260905090005 13 53 4.8 14.5 0.00 0.00 0.00 52 1006.8
20260905085504 13 77 11.3 14.5 0.00 0.00 0.00 52 1006.8
20260905085004 13 84 11.3 14.5 0.00 0.00 0.00 52 1006.8
20260905084504 14 86 4.8 16.1 0.00 0.00 0.00 51 1006.8
20260905084005 14 56 9.7 19.3 0.00 0.00 0.00 50 1006.5
20260905083504 14 48 9.7 19.3 0.00 0.00 0.00 50 1006.4
20260905083004 14 58 11.3 19.3 0.00 0.00 0.00 50 1006.4
20260905082504 14 38 9.7 16.1 0.00 0.00 0.00 50 1006.2
20260905081505 15 51 8.0 14.5 0.00 0.00 0.00 49 1006.6
20260905081004 15 40 9.7 14.5 0.00 0.00 0.00 49 1006.5
20260905080005 15 29 9.7 14.5 0.00 0.00 0.00 49 1006.6
20260905075505 15 37 8.0 12.9 0.00 0.00 0.00 49 1006.7
20260905075004 15 24 4.8 16.1 0.00 0.00 0.00 49 1006.7
20260905074004 15 26 8.0 16.1 0.00 0.00 0.00 49 1006.6
20260905073505 15 36 8.0 11.3 0.00 0.00 0.00 49 1006.5
20260905073005 15 30 4.8 12.9 0.00 0.00 0.00 48 1006.5
20260905072504 15 26 4.8 12.9 0.00 0.00 0.00 48 1006.4
20260905071004 16 33 4.8 9.7 0.00 0.00 0.00 47 1006.4
20260905070004 16 27 4.8 9.7 0.00 0.00 0.00 46 1006.5
20260905065004 16 17 8.0 14.5 0.00 0.00 0.00 45 1006.5
20260905064504 16 26 4.8 14.5 0.00 0.00 0.00 45 1006.6
20260905064004 16 26 8.0 12.9 0.00 0.00 0.00 45 1006.7
20260905063504 16 20 4.8 12.9 0.00 0.00 0.00 46 1006.7
20260905063004 16 16 1.6 4.8 0.00 0.00 0.00 46 1006.8
20260905062504 16 15 3.2 4.8 0.00 0.00 0.00 45 1006.7
20260905062004 17 17 3.2 4.8 0.00 0.00 0.00 45 1006.5
20260905061504 17 31 1.6 11.3 0.00 0.00 0.00 45 1006.6
20260905061004 17 19 4.8 11.3 0.00 0.00 0.00 44 1006.4
20260905060004 17 21 3.2 8.0 0.00 0.00 0.00 44 1006.6
20260905055004 17 19 4.8 12.9 0.00 0.00 0.00 43 1006.5
20260905054504 17 28 6.4 16.1 0.00 0.00 0.00 43 1006.5
20260905054005 17 35 8.0 16.1 0.00 0.00 0.00 43 1006.5
20260905053504 17 17 4.8 19.3 0.00 0.00 0.00 43 1006.4
20260905053004 17 32 9.7 19.3 0.00 0.00 0.00 42 1006.3
20260905052504 17 24 8.0 16.1 0.00 0.00 0.00 42 1006.1
20260905052004 17 32 6.4 16.1 0.00 0.00 0.00 42 1006.0
20260905051504 17 26 3.2 12.9 0.00 0.00 0.00 42 1006.1
20260905051004 17 31 3.2 12.9 0.00 0.00 0.00 42 1006.0
20260905050004 18 67 4.8 9.7 0.00 0.00 0.00 41 1006.1
20260905045504 18 8 3.2 24.1 0.00 0.00 0.00 41 1005.9
20260905045005 18 338 6.4 24.1 0.00 0.00 0.00 41 1005.8
20260905044504 18 331 9.7 24.1 0.00 0.00 0.00 41 1005.7
20260905044004 18 346 4.8 12.9 0.00 0.00 0.00 41 1005.6
20260905043504 18 2 4.8 16.1 0.00 0.00 0.00 41 1005.6
20260905043004 18 10 8.0 16.1 0.00 0.00 0.00 41 1005.6
20260905042504 18 333 9.7 16.1 0.00 0.00 0.00 41 1005.5
20260905042004 18 343 9.7 14.5 0.00 0.00 0.00 41 1005.4
20260905041504 18 0 8.0 16.1 0.00 0.00 0.00 40 1005.5
20260905041004 18 25 4.8 19.3 0.00 0.00 0.00 40 1005.5
20260905040004 18 4 12.9 25.7 0.00 0.00 0.00 39 1005.5
20260905035004 19 13 14.5 25.7 0.00 0.00 0.00 38 1005.4